SCP
0 0 0 0 0 0 0 0 0 -0 0 0 0 0 0 0 0 0 0 0 0 0 0 0 0 0 0 0 0 0 0 0 0 0 0 0 0 0 0 0 0 0 0
0 0 0 0 0 0 0 0 0 -0 -0 0 0 0 0 0 0 0 0 0 0 0 0 0 0 0 0 0 0 0 0 0 0 0 0 0 0 0 0 0 0 0 0
0 0 0 0 0 0 0 0 0 0 0 0 0 0 0 0 0 0 0 0 0 0 0 0 0 0 0 0 0 0 0 0 0 0 0 0 0 0 0 0 0 0 0
0 0 0 0 0 0 0 0 0 0 0 0 0 0 0 0 0 0 0 0 0 0 0 0 0 0 0 0 0 0 0 0 0 0 0 0 0 0 0 0 0 0 0
0 0 0 0 0 0 0 0 0 0 0 0 0 0 0 0 0 0 0 0 0 0 0 0 0 0 0 0 0 0 0 0 0 0 0 0 0 0 0 0 0 0 0
0 0 0 0 0 0 0 0 0 0 0 0 0 0 0 0 0 0 0 0 0 0 0 0 0 0 0 0 0 0 0 0 0 0 0 0 0 0 0 0 0 0 0
0 0 0 0 0 0 0 0 0 0 0 0 -0 0 -0 0 0 0 0 0 0 0 0 0 0 0 0 0 0 0 0 0 0 0 0 0 0 0 0 0 0 0 0
0 0 0 0 0 0 0 0 0 0 0 0 -0 -0 -0 -0 0 0 0 0 0 0 0 0 0 0 0 0 0 0 0 0 0 0 0 0 0 0 0 0 0 0 0
0 0 0 0 0 0 0 0 0 0 0 0 0 -0 -0 0 0 0 0 0 0 0 0 0 0 0 0 0 0 0 0 0 0 0 0 0 0 0 0 0 0 0 0
0 0 0 0 0 0 0 0 0 0 0 0 0 0 0 0 -0 -0 0 0 0 0 0 0 0 0 0 0 0 0 0 0 0 0 0 0 0 0 0 0 0 0 0
0 0 0 0 0 0 0 0 0 0 0 0 0 0 0 0 0 0 0 0 0 0 0 -0 0 -0 -0 0 0 0 0 0 0 0 0 0 0 0 0 0 0 0 0
0 0 0 0 0 0 0 0 0 0 0 0 0 0 0 0 0 0 0 0 0 -0 -0 -0 -0 -0 -0 -0 -0 0 0 0 0 0 0 0 0 0 0 0 0 0 0
0 0 0 0 0 0 0 0 0 0 0 0 0 0 0 0 0 0 0 0 0 0 0 0 -0 -0 -0 -0 -0 -0 -0 0 0 0 0 0 0 0 0 0 0 0 0
0 0 0 0 0 0 0 0 0 0 0 0 0 0 0 0 0 0 0 0 0 0 0 0 0 0 0 0 0 0 0 -0 0 0 0 0 0 0 0 0 0 0 0
0 0 0 0 0 0 0 0 0 0 0 0 0 0 0 0 0 0 0 0 0 0 0 0 0 0 0 0 0 0 0 0 0 0 0 0 0 0 0 0 0 0 0
0 0 0 0 0 0 0 0 0 0 0 0 0 0 0 0 0 0 0 0 0 0 0 0 0 0 0 0 0 0 0 0 0 -0 0 -0 -0 0 0 0 0 0 0
0 0 0 0 0 0 0 0 0 0 0 0 0 0 0 0 0 0 0 0 0 0 0 0 0 0 0 0 0 0 0 0 0 0 0 0 0 0 0 0 0 0 0
0 0 0 0 0 0 0 0 0 0 0 0 0 0 0 0 0 0 0 0 0 0 0 0 0 0 0 0 0 0 0 0 0 0 0 0 0 0 0 0 0 0 0
0 0 0 0 0 0 0 0 0 0 0 0 0 0 0 0 0 0 0 0 0 0 0 0 0 0 0 0 0 0 0 0 0 0 0 0 0 0 0 0 0 0 0
0 0 0 0 0 0 0 0 0 0 0 0 0 0 0 0 0 0 0 0 0 0 0 0 0 0 0 0 0 0 0 0 0 0 0 0 0 0 0 0 0 0 0
0 0 0 0 0 0 0 0 0 0 0 0 0 0 0 0 0 0 0 0 0 0 0 0 0 0 0 0 0 0 0 0 0 0 0 0 0 0 0 0 0 0 0
0 0 0 0 0 0 0 0 0 0 0 0 0 0 0 0 0 0 0 0 0 0 0 0 0 0 0 0 0 0 0 0 0 0 0 0 0 0 0 0 0 0 0
0 0 0 0 0 0 0 0 0 0 0 0 0 0 0 0 0 0 0 0 0 0 0 0 0 0 0 0 0 0 0 0 0 0 0 0 0 0 0 0 0 0 0
0 0 0 0 0 0 0 0 0 0 0 0 0 0 0 0 0 0 0 0 0 0 0 0 0 0 0 0 0 0 0 0 0 0 0 0 0 0 0 0 0 0 0
0 0 0 0 0 0 0 0 0 0 0 0 0 0 0 0 0 0 0 0 0 0 0 0 0 0 0 0 0 0 0 0 0 0 0 0 0 0 0 0 0 0 0
0 0 0 0 0 0 0 0 0 0 0 0 0 0 0 0 0 0 0 0 0 0 0 0 0 0 0 0 0 0 0 0 0 0 0 0 0 0 0 0 0 -0 0
Wind_Speed_500mb
15 12 11 11 12 21 18 19 25 33 45 30 24 24 25 25 25 26 25 25 25 25 23 22 20 19 18 17 20 22 14 14 16 18 21 23 23 25 27 29 31 34 35
13 12 15 15 6 6 10 17 22 33 39 37 37 37 34 33 32 31 31 30 28 29 28 27 26 25 24 23 14 22 30 26 18 21 23 24 26 25 26 28 26 29 30
13 15 12 11 9 13 13 17 22 30 39 40 41 44 48 44 37 36 34 31 32 32 31 31 31 30 29 27 28 22 20 36 38 29 25 26 28 27 27 28 27 28 27
13 14 2 6 2 8 11 16 21 28 33 34 34 31 26 26 29 30 31 34 35 34 34 34 33 34 33 32 32 32 30 21 39 45 45 36 34 31 30 31 30 30 30
8 5 5 6 9 14 17 20 22 23 25 27 29 29 27 22 20 23 22 23 27 30 33 37 36 38 38 37 36 36 38 37 30 35 44 49 46 38 35 33 33 32 32
7 3 5 5 10 13 15 15 16 20 27 33 32 31 21 17 25 13 24 26 19 22 23 25 28 31 35 40 43 42 42 44 44 39 35 51 49 57 46 39 38 36 34
14 14 14 15 15 14 18 21 23 27 33 38 39 39 26 30 19 13 35 29 19 26 28 26 28 31 32 32 35 41 45 48 51 50 52 39 50 54 53 55 45 41 40
26 23 22 21 21 21 22 26 29 34 38 46 47 32 22 21 20 49 31 25 40 38 28 39 45 45 47 46 42 40 41 43 51 55 56 60 47 49 55 53 53 48 41
18 16 17 19 23 28 33 36 38 38 40 40 42 34 19 15 63 11 46 35 38 62 52 58 62 58 52 48 51 51 49 49 51 52 58 62 65 61 43 48 53 52 48
21 22 24 25 26 27 31 39 43 45 45 45 41 38 30 28 22 39 41 69 45 54 77 78 75 70 73 69 60 59 55 53 55 57 60 59 66 73 78 70 54 51 51
22 23 25 27 29 33 36 39 41 46 47 47 45 46 44 43 35 39 68 68 87 79 84 88 89 94 83 83 76 64 61 60 57 57 60 62 67 68 75 84 86 76 67
18 19 21 26 33 38 42 46 49 51 54 53 52 50 46 43 51 48 61 72 80 97 93 94 88 89 86 86 86 80 79 78 72 65 60 58 62 68 74 78 83 89 86
19 25 31 36 41 45 49 49 51 55 59 62 63 63 59 56 56 58 62 78 81 93 102 102 75 77 68 79 93 90 83 76 75 75 70 71 71 69 69 73 80 85 86
25 29 31 35 36 43 44 48 50 54 59 63 63 61 61 61 58 59 61 63 81 83 81 85 92 92 85 80 64 73 90 95 94 93 92 85 82 81 78 75 76 76 81
21 28 30 30 33 35 46 52 58 61 65 67 67 67 65 65 63 63 62 61 62 78 83 70 66 66 87 93 94 94 94 99 102 101 98 96 87 81 84 84 81 79 80
18 22 29 32 35 42 52 59 65 66 70 71 71 70 70 70 71 70 69 66 57 64 89 85 78 69 70 85 99 98 99 101 104 102 98 92 93 90 81 85 88 87 83
20 24 32 39 45 51 59 64 67 70 72 74 73 74 74 72 73 73 73 74 75 61 71 116 84 78 72 74 84 94 98 95 100 101 87 73 73 79 90 84 86 91 91
25 30 37 44 51 54 60 66 71 74 75 76 77 76 77 75 76 75 73 72 65 61 63 85 107 91 88 80 78 76 84 92 89 83 75 77 75 76 79 88 87 86 92
29 34 41 49 54 59 65 69 72 74 75 75 74 74 75 74 76 74 71 71 67 64 65 70 105 94 83 72 66 63 66 70 82 82 69 68 66 68 69 72 80 86 85
30 38 47 53 56 62 66 68 72 73 73 72 71 71 72 71 72 70 73 76 73 68 68 70 82 95 78 77 64 64 64 50 55 55 67 73 74 69 65 66 72 77 78
36 44 50 54 59 63 66 69 71 71 72 72 72 71 70 68 68 63 63 67 69 74 77 79 82 83 76 68 68 79 75 76 82 83 81 78 63 59 60 54 59 66 66
40 46 51 56 61 65 65 65 69 72 72 71 73 71 69 67 66 55 57 58 59 67 75 77 84 86 83 73 73 76 76 74 86 69 69 78 76 86 81 72 56 45 50
43 46 52 58 62 63 63 66 69 71 71 70 67 67 67 62 61 62 60 58 61 61 60 68 82 82 86 77 77 78 74 75 82 84 74 89 80 96 96 90 74 79 82
41 46 53 59 64 65 63 65 68 68 68 66 62 60 62 64 64 61 67 71 71 78 76 74 79 85 85 80 78 83 86 90 93 91 74 81 83 87 85 82 70 66 62
42 47 54 61 66 67 63 64 66 67 65 61 60 61 63 69 65 63 71 81 84 83 77 76 80 80 79 78 77 82 84 85 93 98 79 70 84 82 84 88 84 75 79
43 48 55 61 65 68 62 61 61 59 61 62 61 61 60 58 61 63 70 79 94 94 86 83 81 75 66 65 75 75 78 87 89 106 85 59 73 73 86 86 68 49 59
Wind_Direction_500mb
210 232 254 268 274 294 305 316 329 338 330 329 320 313 308 301 295 291 288 285 285 284 285 285 286 287 291 298 311 303 295 304 303 295 283 276 270 268 267 267 268 273 275
230 247 249 249 294 292 325 327 338 336 337 333 328 322 314 306 300 296 293 290 286 286 285 284 284 283 282 279 270 292 303 297 303 301 295 289 285 279 274 272 274 273 276
238 245 202 231 285 292 328 333 333 326 325 319 316 318 319 318 308 296 291 291 290 288 288 285 282 281 280 278 275 268 277 297 301 299 296 295 288 283 281 281 279 276 276
173 168 132 115 25 334 340 331 328 332 324 320 321 328 331 328 322 314 297 292 293 293 292 287 287 284 280 278 276 274 262 269 298 302 301 298 293 285 281 281 279 277 276
110 84 39 4 334 327 325 344 348 345 340 347 348 352 346 343 345 341 343 330 316 307 299 294 289 286 285 280 275 273 271 262 256 292 292 296 294 284 283 281 281 281 279
112 48 5 25 31 29 28 17 4 356 355 354 353 357 350 350 357 20 12 343 333 338 334 326 316 305 296 288 284 277 271 270 265 254 280 290 293 299 290 284 285 282 278
109 97 86 73 63 47 36 28 18 7 357 355 352 355 10 338 337 349 333 332 342 334 320 320 321 316 311 307 298 289 279 273 269 263 255 261 281 286 293 294 287 284 282
92 83 71 57 42 30 19 12 8 7 3 2 2 1 341 334 301 316 317 316 313 313 307 309 314 312 309 304 299 294 290 286 274 268 263 257 257 269 278 278 286 287 278
83 67 52 41 30 21 14 10 5 3 3 2 2 12 350 329 323 311 309 308 306 307 304 301 308 305 307 306 303 298 293 287 279 276 269 262 255 249 259 264 283 284 283
66 51 38 28 19 13 8 7 5 2 359 357 355 353 342 322 321 315 299 302 320 299 307 308 306 307 305 304 300 300 297 292 286 280 272 269 262 254 246 249 255 268 275
49 37 28 20 14 10 7 3 358 356 353 350 347 342 335 324 323 295 302 307 303 307 305 307 306 307 308 304 303 300 296 293 290 288 282 274 267 265 259 255 251 253 257
41 28 17 8 3 0 358 355 353 350 346 343 340 337 331 322 314 305 298 299 302 307 307 307 307 308 306 305 304 301 296 293 291 288 283 281 277 270 264 262 260 256 252
19 12 8 3 358 353 350 347 344 341 336 333 332 329 325 319 312 307 301 301 301 302 303 301 307 305 304 299 302 304 302 296 293 287 282 282 285 280 275 269 264 261 258
10 2 356 349 344 338 335 332 332 332 328 325 324 322 318 315 310 304 298 296 299 299 300 296 294 296 298 298 294 291 294 298 294 291 287 283 282 281 279 276 271 267 262
353 340 333 328 329 333 329 330 329 329 324 323 322 320 316 313 307 303 296 290 290 297 295 296 294 294 293 292 291 291 288 289 290 291 291 290 285 278 276 276 274 272 268
329 326 322 323 330 336 332 330 330 327 325 325 323 320 317 314 308 303 300 294 286 284 289 292 294 293 291 291 293 292 290 288 289 291 291 291 290 283 275 272 272 272 271
322 325 325 330 336 337 331 330 328 326 324 322 320 316 313 310 306 303 300 297 293 285 284 289 289 291 293 293 294 295 294 293 293 290 290 288 284 283 282 273 268 267 268
329 334 331 330 333 331 329 328 326 324 321 317 315 312 309 308 304 302 301 298 293 287 286 291 292 295 296 296 285 288 291 294 294 290 290 291 286 280 277 278 272 266 264
329 328 327 329 330 328 328 326 323 320 317 314 312 309 306 305 302 301 298 295 293 292 289 288 291 296 300 307 303 302 289 286 292 297 295 291 291 288 283 277 274 270 266
323 327 327 328 327 326 326 324 322 319 317 314 312 308 305 302 299 297 294 293 296 295 298 295 292 293 299 304 306 301 297 288 291 286 290 294 300 295 286 279 273 275 274
322 324 326 326 326 326 326 324 321 319 316 313 310 306 303 300 295 296 296 298 297 293 293 295 293 296 299 304 301 301 298 298 290 287 280 283 298 289 282 277 280 286 288
320 323 324 325 325 326 325 321 319 317 315 312 310 308 304 300 299 294 292 291 290 292 292 292 290 291 296 299 300 299 299 300 299 303 294 286 280 284 283 276 270 276 274
318 321 323 324 324 324 323 320 318 316 314 313 309 307 307 305 305 308 303 297 293 291 289 292 290 290 293 298 299 297 296 296 293 299 297 294 298 284 281 285 286 278 265
313 319 322 323 323 323 322 319 319 316 314 313 312 312 315 317 319 309 307 304 305 306 305 299 295 296 296 298 297 297 297 296 294 292 289 285 294 290 296 289 283 283 282
311 318 322 323 323 323 323 321 319 316 316 318 322 324 323 320 319 312 305 303 302 300 303 301 295 288 287 287 286 288 287 287 287 285 285 283 284 285 288 289 289 281 275
309 317 322 323 322 321 321 319 317 318 321 323 320 319 318 312 311 309 305 304 301 302 304 302 302 300 298 296 292 285 283 278 280 284 287 280 282 284 287 286 293 290 286
Wind_Speed_850mb
15 12 11 11 12 21 18 19 25 33 45 30 24 24 25 25 25 26 25 25 25 25 23 22 20 19 18 17 20 22 14 14 16 18 21 23 23 25 27 29 31 34 35
13 12 15 15 6 6 10 17 22 33 39 37 37 37 34 33 32 31 31 30 28 29 28 27 26 25 24 23 14 22 30 26 18 21 23 24 26 25 26 28 26 29 30
13 15 12 11 9 13 13 17 22 30 39 40 41 44 48 44 37 36 34 31 32 32 31 31 31 30 29 27 28 22 20 36 38 29 25 26 28 27 27 28 27 28 27
13 14 2 6 2 8 11 16 21 28 33 34 34 31 26 26 29 30 31 34 35 34 34 34 33 34 33 32 32 32 30 21 39 45 45 36 34 31 30 31 30 30 30
8 5 5 6 9 14 17 20 22 23 25 27 29 29 27 22 20 23 22 23 27 30 33 37 36 38 38 37 36 36 38 37 30 35 44 49 46 38 35 33 33 32 32
7 3 5 5 10 13 15 15 16 20 27 33 32 31 21 17 25 13 24 26 19 22 23 25 28 31 35 40 43 42 42 44 44 39 35 51 49 57 46 39 38 36 34
14 14 14 15 15 14 18 21 23 27 33 38 39 39 26 30 19 13 35 29 19 26 28 26 28 31 32 32 35 41 45 48 51 50 52 39 50 54 53 55 45 41 40
26 23 22 21 21 21 22 26 29 34 38 46 47 32 22 21 20 49 31 25 40 38 28 39 45 45 47 46 42 40 41 43 51 55 56 60 47 49 55 53 53 48 41
18 16 17 19 23 28 33 36 38 38 40 40 42 34 19 15 63 11 46 35 38 62 52 58 62 58 52 48 51 51 49 49 51 52 58 62 65 61 43 48 53 52 48
21 22 24 25 26 27 31 39 43 45 45 45 41 38 30 28 22 39 41 69 45 54 77 78 75 70 73 69 60 59 55 53 55 57 60 59 66 73 78 70 54 51 51
22 23 25 27 29 33 36 39 41 46 47 47 45 46 44 43 35 39 68 68 87 79 84 88 89 94 83 83 76 64 61 60 57 57 60 62 67 68 75 84 86 76 67
18 19 21 26 33 38 42 46 49 51 54 53 52 50 46 43 51 48 61 72 80 97 93 94 88 89 86 86 86 80 79 78 72 65 60 58 62 68 74 78 83 89 86
19 25 31 36 41 45 49 49 51 55 59 62 63 63 59 56 56 58 62 78 81 93 102 102 75 77 68 79 93 90 83 76 75 75 70 71 71 69 69 73 80 85 86
25 29 31 35 36 43 44 48 50 54 59 63 63 61 61 61 58 59 61 63 81 83 81 85 92 92 85 80 64 73 90 95 94 93 92 85 82 81 78 75 76 76 81
21 28 30 30 33 35 46 52 58 61 65 67 67 67 65 65 63 63 62 61 62 78 83 70 66 66 87 93 94 94 94 99 102 101 98 96 87 81 84 84 81 79 80
18 22 29 32 35 42 52 59 65 66 70 71 71 70 70 70 71 70 69 66 57 64 89 85 78 69 70 85 99 98 99 101 104 102 98 92 93 90 81 85 88 87 83
20 24 32 39 45 51 59 64 67 70 72 74 73 74 74 72 73 73 73 74 75 61 71 116 84 78 72 74 84 94 98 95 100 101 87 73 73 79 90 84 86 91 91
25 30 37 44 51 54 60 66 71 74 75 76 77 76 77 75 76 75 73 72 65 61 63 85 107 91 88 80 78 76 84 92 89 83 75 77 75 76 79 88 87 86 92
29 34 41 49 54 59 65 69 72 74 75 75 74 74 75 74 76 74 71 71 67 64 65 70 105 94 83 72 66 63 66 70 82 82 69 68 66 68 69 72 80 86 85
30 38 47 53 56 62 66 68 72 73 73 72 71 71 72 71 72 70 73 76 73 68 68 70 82 95 78 77 64 64 64 50 55 55 67 73 74 69 65 66 72 77 78
36 44 50 54 59 63 66 69 71 71 72 72 72 71 70 68 68 63 63 67 69 74 77 79 82 83 76 68 68 79 75 76 82 83 81 78 63 59 60 54 59 66 66
40 46 51 56 61 65 65 65 69 72 72 71 73 71 69 67 66 55 57 58 59 67 75 77 84 86 83 73 73 76 76 74 86 69 69 78 76 86 81 72 56 45 50
43 46 52 58 62 63 63 66 69 71 71 70 67 67 67 62 61 62 60 58 61 61 60 68 82 82 86 77 77 78 74 75 82 84 74 89 80 96 96 90 74 79 82
41 46 53 59 64 65 63 65 68 68 68 66 62 60 62 64 64 61 67 71 71 78 76 74 79 85 85 80 78 83 86 90 93 91 74 81 83 87 85 82 70 66 62
42 47 54 61 66 67 63 64 66 67 65 61 60 61 63 69 65 63 71 81 84 83 77 76 80 80 79 78 77 82 84 85 93 98 79 70 84 82 84 88 84 75 79
43 48 55 61 65 68 62 61 61 59 61 62 61 61 60 58 61 63 70 79 94 94 86 83 81 75 66 65 75 75 78 87 89 106 85 59 73 73 86 86 68 49 59
Wind_Direction_850mb
210 232 254 268 274 294 305 316 329 338 330 329 320 313 308 301 295 291 288 285 285 284 285 285 286 287 291 298 311 303 295 304 303 295 283 276 270 268 267 267 268 273 275
230 247 249 249 294 292 325 327 338 336 337 333 328 322 314 306 300 296 293 290 286 286 285 284 284 283 282 279 270 292 303 297 303 301 295 289 285 279 274 272 274 273 276
238 245 202 231 285 292 328 333 333 326 325 319 316 318 319 318 308 296 291 291 290 288 288 285 282 281 280 278 275 268 277 297 301 299 296 295 288 283 281 281 279 276 276
173 168 132 115 25 334 340 331 328 332 324 320 321 328 331 328 322 314 297 292 293 293 292 287 287 284 280 278 276 274 262 269 298 302 301 298 293 285 281 281 279 277 276
110 84 39 4 334 327 325 344 348 345 340 347 348 352 346 343 345 341 343 330 316 307 299 294 289 286 285 280 275 273 271 262 256 292 292 296 294 284 283 281 281 281 279
112 48 5 25 31 29 28 17 4 356 355 354 353 357 350 350 357 20 12 343 333 338 334 326 316 305 296 288 284 277 271 270 265 254 280 290 293 299 290 284 285 282 278
109 97 86 73 63 47 36 28 18 7 357 355 352 355 10 338 337 349 333 332 342 334 320 320 321 316 311 307 298 289 279 273 269 263 255 261 281 286 293 294 287 284 282
92 83 71 57 42 30 19 12 8 7 3 2 2 1 341 334 301 316 317 316 313 313 307 309 314 312 309 304 299 294 290 286 274 268 263 257 257 269 278 278 286 287 278
83 67 52 41 30 21 14 10 5 3 3 2 2 12 350 329 323 311 309 308 306 307 304 301 308 305 307 306 303 298 293 287 279 276 269 262 255 249 259 264 283 284 283
66 51 38 28 19 13 8 7 5 2 359 357 355 353 342 322 321 315 299 302 320 299 307 308 306 307 305 304 300 300 297 292 286 280 272 269 262 254 246 249 255 268 275
49 37 28 20 14 10 7 3 358 356 353 350 347 342 335 324 323 295 302 307 303 307 305 307 306 307 308 304 303 300 296 293 290 288 282 274 267 265 259 255 251 253 257
41 28 17 8 3 0 358 355 353 350 346 343 340 337 331 322 314 305 298 299 302 307 307 307 307 308 306 305 304 301 296 293 291 288 283 281 277 270 264 262 260 256 252
19 12 8 3 358 353 350 347 344 341 336 333 332 329 325 319 312 307 301 301 301 302 303 301 307 305 304 299 302 304 302 296 293 287 282 282 285 280 275 269 264 261 258
10 2 356 349 344 338 335 332 332 332 328 325 324 322 318 315 310 304 298 296 299 299 300 296 294 296 298 298 294 291 294 298 294 291 287 283 282 281 279 276 271 267 262
353 340 333 328 329 333 329 330 329 329 324 323 322 320 316 313 307 303 296 290 290 297 295 296 294 294 293 292 291 291 288 289 290 291 291 290 285 278 276 276 274 272 268
329 326 322 323 330 336 332 330 330 327 325 325 323 320 317 314 308 303 300 294 286 284 289 292 294 293 291 291 293 292 290 288 289 291 291 291 290 283 275 272 272 272 271
322 325 325 330 336 337 331 330 328 326 324 322 320 316 313 310 306 303 300 297 293 285 284 289 289 291 293 293 294 295 294 293 293 290 290 288 284 283 282 273 268 267 268
329 334 331 330 333 331 329 328 326 324 321 317 315 312 309 308 304 302 301 298 293 287 286 291 292 295 296 296 285 288 291 294 294 290 290 291 286 280 277 278 272 266 264
329 328 327 329 330 328 328 326 323 320 317 314 312 309 306 305 302 301 298 295 293 292 289 288 291 296 300 307 303 302 289 286 292 297 295 291 291 288 283 277 274 270 266
323 327 327 328 327 326 326 324 322 319 317 314 312 308 305 302 299 297 294 293 296 295 298 295 292 293 299 304 306 301 297 288 291 286 290 294 300 295 286 279 273 275 274
322 324 326 326 326 326 326 324 321 319 316 313 310 306 303 300 295 296 296 298 297 293 293 295 293 296 299 304 301 301 298 298 290 287 280 283 298 289 282 277 280 286 288
320 323 324 325 325 326 325 321 319 317 315 312 310 308 304 300 299 294 292 291 290 292 292 292 290 291 296 299 300 299 299 300 299 303 294 286 280 284 283 276 270 276 274
318 321 323 324 324 324 323 320 318 316 314 313 309 307 307 305 305 308 303 297 293 291 289 292 290 290 293 298 299 297 296 296 293 299 297 294 298 284 281 285 286 278 265
313 319 322 323 323 323 322 319 319 316 314 313 312 312 315 317 319 309 307 304 305 306 305 299 295 296 296 298 297 297 297 296 294 292 289 285 294 290 296 289 283 283 282
311 318 322 323 323 323 323 321 319 316 316 318 322 324 323 320 319 312 305 303 302 300 303 301 295 288 287 287 286 288 287 287 287 285 285 283 284 285 288 289 289 281 275
309 317 322 323 322 321 321 319 317 318 321 323 320 319 318 312 311 309 305 304 301 302 304 302 302 300 298 296 292 285 283 278 280 284 287 280 282 284 287 286 293 290 286